Overview Statistics Trail Chart Weather Telemetry Raw packets
 

This is the latest recevied weather packets stored in our database for station/object CT7BNL-13. If no packets are shown the sender has not sent any weather packets the latest 10 day(s).

<< 9 10 11 12 13 14 15 >>
Time Temp. Humidity Pressure Rain* Wind** Luminosity Snow
1788371365 30° C 44% 1027.1 hPa 0 mm - 103 W/m² -
1788370465 30° C 42% 1027 hPa 0 mm - 143 W/m² -
1788369565 30.56° C 42% 1026.8 hPa 0 mm - 186 W/m² -
1788368666 31.11° C 41% 1026.7 hPa 0 mm - 234 W/m² -
1788367766 31.67° C 40% 1026.8 hPa 0 mm - 282 W/m² -
1788366865 31.67° C 39% 1026.5 hPa 0 mm - 334 W/m² -
1788365966 32.78° C 37% 1026.8 hPa 0 mm - 383 W/m² -
1788365066 33.33° C 38% 1027 hPa 0 mm - 434 W/m² -
1788364165 32.78° C 36% 1026.7 hPa 0 mm - 480 W/m² -
1788363265 32.78° C 37% 1026.7 hPa 0 mm - 529 W/m² -
1788362366 33.89° C 34% 1027 hPa 0 mm - 567 W/m² -
1788361466 33.89° C 32% 1026.7 hPa 0 mm - 611 W/m² -
1788360565 34.44° C 29% 1026.8 hPa 0 mm - 645 W/m² -
1788359665 33.89° C 33% 1027.2 hPa 0 mm - 682 W/m² -
1788358766 33.89° C 30% 1027.3 hPa 0 mm - 711 W/m² -
1788357866 32.22° C 34% 1027.1 hPa 0 mm - 737 W/m² -
1788356966 32.22° C 31% 1027.3 hPa 0 mm - 758 W/m² -
1788356065 31.67° C 34% 1027.4 hPa 0 mm - 777 W/m² -
1788354265 31.67° C 36% 1027.4 hPa 0 mm - 807 W/m² -
1788353367 31.11° C 37% 1027.4 hPa 0 mm - 816 W/m² -
1788352465 30.56° C 41% 1027.5 hPa 0 mm - 818 W/m² -
1788351565 30° C 47% 1027.7 hPa 0 mm - 820 W/m² -
1788350666 28.89° C 50% 1028 hPa 0 mm - 812 W/m² -
1788349766 28.89° C 51% 1027.8 hPa 0 mm - 804 W/m² -
1788348865 28.33° C 50% 1028.2 hPa 0 mm - 792 W/m² -

* Rain latest hour (hover to see other rain measurements)
** Current wind speed in m/s (hover to see current wind gust speed)